Location: Six Mile Lake
(44.9000°N, 79.7170°W)
Time: 20:31:18
(UTC-05:00)

Envisat - Visible Passes

Search period start: 18 January 2022 00:00
Search period end: 28 January 2022 00:00
Orbit: 764 x 766 km, 98.2° (Epoch: 18 January)

Date Brightness Start Highest point End Pass type
(mag) Time Alt. Az. Time Alt. Az. Time Alt. Az.
18 Jan 5.0 04:20:31 10° NE 04:24:42 25° E 04:28:51 10° SSE visible
18 Jan 3.3 05:59:05 10° N 06:03:52 43° WNW 06:08:38 10° SW visible
19 Jan 6.0 03:45:45 10° ENE 03:47:24 11° E 03:49:02 10° ESE visible
19 Jan 2.9 05:22:00 10° NNE 05:27:07 90° WSW 05:32:12 10° SSW visible
19 Jan 4.6 07:02:56 10° NNW 07:05:23 14° WNW 07:07:49 10° W visible
20 Jan 4.1 04:45:20 10° NNE 04:50:10 42° E 04:54:57 10° S visible
20 Jan 3.9 06:24:46 10° N 06:28:57 27° WNW 06:33:09 10° WSW visible
20 Jan 5.9 17:42:57 10° SW 17:46:02 16° W 17:49:07 10° NW visible
21 Jan 5.3 04:09:17 10° NE 04:13:00 20° E 04:16:41 10° SE visible
21 Jan 3.0 05:47:23 10° N 05:52:20 54° WNW 05:57:15 10° SSW visible
22 Jan 3.1 05:10:25 10° NNE 05:15:31 73° ESE 05:20:35 10° S visible
22 Jan 4.4 06:50:48 10° NNW 06:53:57 17° WNW 06:57:06 10° W visible
23 Jan 4.5 04:33:54 10° NNE 04:38:30 33° E 04:43:05 10° SSE visible
23 Jan 3.6 06:12:58 10° N 06:17:28 33° WNW 06:21:57 10° SW visible
24 Jan 5.6 03:58:13 10° NE 04:01:17 16° E 04:04:20 10° SE visible
24 Jan 2.9 05:35:43 10° N 05:40:47 68° WNW 05:45:49 10° SSW visible
25 Jan 3.5 04:58:53 10° NNE 05:03:54 57° E 05:08:53 10° S visible
25 Jan 4.2 06:38:49 10° NNW 06:42:30 21° WNW 06:46:10 10° WSW visible
25 Jan 6.3 17:58:13 10° WSW 17:59:55 12° W 18:01:37 10° WNW visible
26 Jan 4.9 04:22:32 10° NE 04:26:50 27° E 04:31:05 10° SSE visible
26 Jan 3.3 06:01:13 10° N 06:05:57 40° WNW 06:10:40 10° SW visible
27 Jan 5.9 03:47:27 10° ENE 03:49:32 12° E 03:51:36 10° ESE visible
27 Jan 2.8 05:24:06 10° NNE 05:29:13 85° WNW 05:34:17 10° SSW visible
27 Jan 4.7 07:05:15 10° NNW 07:07:26 13° WNW 07:09:37 10° W visible
